Погода в Рославле

Погода в Рославле : погода сейчас, прогноз погоды и архив. Всё, что Вы хотите узнать о погоде в Рославле!

Хотите узнать прогноз погоды в Рославле? Тогда Вам сюда: Погода в Рославле

Поиск расширенной информации на нашем сайте:

Другие новости

Новости СМИ2

Главная страница сайта

Новости сайта

03.07.2017

Напоминаем, что на нашем специализированном сайте Метеоцентр.Азия вы можете получить высокодетализированные автоматические прогнозы погоды по пунктам России, СНГ и мира в авиационном формате (включающие направление и скорость ветра, видимость, явления погоды, количество и форму облачности, нижнюю и верхнюю границу облачности).

Рекомендуем: аренда дома одесса

Погода в Рославле - сегодня

Время (UTC), дата Ветер
(°,м/с) 
Видим.   Явления Облачность Т
(°С)
Тd
(°С)
f(%) Тe
(°С)
Pmin
(гПа)
dP
(гПа)
Po
(мм)
O2
(г/м3)
Тmin Tmax R s Состояние
почвы
06 14.08.18 120 (ЮВ) 20000 м    8/4 600 м средняя, верхняя 
[Cu med, cong|Ac trans|Cc]
+18.4 +12.1 67 +23  1014.6  0.2  741  278  +12.1        сухая 
09 14.08.18 150 (ЮВ) 20000 м    5/1 600 м верхняя 
[Cu hum|Ci]
+23.5 +14.7 58 +32  1014.1  741  272           
12 14.08.18 150 (ЮВ) 20000 м    9/6 1000 м верхняя 
[Cu med, cong|Cs]
+25 +14.5 52 +33  1013.5  -0.5  741  271           
15 14.08.18 170 (Ю) 20000 м    9/3 1000 м верхняя 
[Cu med, cong|Cs]
+24.2 +15.3 58 +34  1013  -0.5  741  271           
21 14.08.18 140 (ЮВ) 50000 м    3/0 верхняя 
[Ci fib]
+17.5 +15 85 +27  1013  -0.8  740  277           
00 15.08.18 130 (ЮВ) 30000 м    3/0 верхняя 
[Cs]
+16.7 +14.7 88 +26  1011.8  -1.3  739  278           
03 15.08.18 240 (ЮЗ) 20000 м  гроза без осадков  9/6 600 м кучево-дожд., средняя 
[Cb calv|Ac trans]
+18.6 +15.6 83 +29  1010.8  -0.8  739  275  +15.7         
06 15.08.18 200 (Ю) 20000 м  {гроза, ливн. осадки}  9/4 600 м средняя, верхняя 
[Cu med, cong|Ac trans|Ci fib]
+20.9 +15.9 73 +32  1009.9  -0.7  738  273  +15.7    0.0    сухая 
09 15.08.18 220 (ЮЗ) 18000 м  в посл. час гроза{ливн. осадки}  9/8 600 м средняя, верхняя 
[Cu med, cong|Ac trans|Ci fib]
+21.1 +17.4 79 +35  1011  1.1  739  272           
21 15.08.18 250 (З) 50000 м    8/0 средняя 
[Ac trans]
+18.2 +15.7 85 +29  1014.3  0.8  741  277           
00 16.08.18 240 (ЮЗ) 50000 м    9/0 средняя 
[Ac trans]
+16.6 +15.4 93 +27  1014.9  0.4  741  278           
06 16.08.18 190 (Ю) 20000 м    8/0 верхняя 
[Cc]
+21.4 +15.9 71 +32  1016.1  0.7  743  274  +15.1        сухая 
09 16.08.18 250 (З) 20000 м    9/8 1000 м верхняя 
[Cu Sc|Ci fib]
+24 +15.7 60 +34  1016.3  0.4  743  272           
21 16.08.18 тихо ()   50000 м    ясно 
+16.1 +15.2 94 +25  1020.2  0.8  745  280           
00 17.08.18 030 (СВ) 22000 м    3/0 верхняя 
[Ci fib]
+14.8 +14 95 +23  1021  0.6  746  282           
03 17.08.18 040 (СВ) 18000 м    9/0 средняя, верхняя 
[As op|Cc]
+15 +14.2 95 +23  1021.9  0.9  746  282  +14.6         
06 17.08.18 070 (В) 20000 м    9/8 330 м средняя 
[St|Ac trans]
+16.8 +15.2 90 +27  1022.3  0.6  747  280  +14.6        влажная 
09 17.08.18 070 (В) 20000 м    8/6 600 м средняя 
[Cu med, cong|Ac inh]
+20.5 +15.6 73 +30  1022.3  0.3  747  277           
12 17.08.18 070 (В) 20000 м    5/3 600 м средняя 
[Cu med, cong|Ac cast]
+23.1 +14.8 60 +32  1021.7  -0.4  747  274           
15 17.08.18 080 (В) 20000 м    3/3 600 м 
[Cu hum]
+21.4 +13.8 62 +28  1021.3  -0.5  746  276           
21 17.08.18 тихо ()   28000 м    ясно 
+14.5 +13.2 92 +20  1022  0.1  746  283           
00 18.08.18 100 (В) 20000 м    ясно 
+12.8 +11.6 92 +16  1022.7  0.5  747  285           
03 18.08.18 110 (В) 19000 м    3/0 верхняя 
[Ci fib]
+12 +11 94 +15  1022.5  -0.2  747  286  +11.8         
06 18.08.18 120 (ЮВ) 20000 м    3/0 верхняя 
[Ci fib]
+17.4 +12.2 72 +22  1022.1  747  280  +11.8        влажная 
09 18.08.18 140 (ЮВ) 20000 м    1/0 верхняя 
[Ci fib]
+22.8 +14 58 +30  1021.6  0.1  747  275           
Время (UTC), дата Ветер
(°,м/с) 
Видим.   Явления Облачность Т
(°С)
Тd
(°С)
f(%) Тe
(°С)
Pmin
(гПа)
dP
(гПа)
Po
(мм)
O2
(г/м3)
Тmin Tmax R s Состояние
почвы

Для получения пояснительной информации подведите курсор к названию столбца.

ПОГОДА в Рославле - архив

Всё, что Вы хотите узнать о погоде в Рославле - удобно и подробно!

Выберите нужную дату (начиная с 1 января 2015* года) и нажмите кнопку "Найти".
Будут отображены архивные сводки погоды по пункту Рославль, начиная с указанной даты.


Отображать данные в формате CSV (для использования в таблицах Excel)


Внимание! Наш архив погоды предназначен исключительно для личного некоммерческого использования в познавательных целях. Если Вам необходимы официальные справки о состоянии погоды (для производственных, юридических, коммерческих и т.п. целей), обращайтесь в органы Росгидромета.

*Примечание: данная дата относится к архиву по метеостанциям СССР (Россия, СНГ, Балтия).
Архив по метеостанциям Зарубежной Европы и Азии (кроме Китая) хранится 10 дней, по другим регионам земного шара (Китай, Африка, Америка, Австралия, Океания) - 1 день.

Рославль - район местоположения метеостанции


Название, широта, долгота, высота метеостанции:
Рославль 53.9°ш. 32.8°д. 224 м над ур. моря [Российская Федерация]

Дополнительная информация

В oтличие oт бoльшинства пoгoдных сайтoв мы публикуем пoдрoбную метеoинфoрмацию в детальнoм прoфессиoнальнoм фoрмате.

Характеристики температуры и влажнoсти вoздуха измеряются на высoте 2 м в тени вдали oт зданий и деревьев.
Скoрoсть ветра измеряется на высoте 10 м (на урoвне рoста челoвека скoрoсть ветра ниже в 1.5-2 раза). Если метеoстанция нахoдится в гoрoде или в лесу, тo скoрoсть ветра занижена на 2-4 м/с пo сравнению с oткрытым местoм. Скoрoсть ветра над акватoриями крупных рек и oзёр, а также на вершинах хoлмoв на 2-5 м/с выше, чем в oбычных услoвиях.
Атмoсфернoе давление в разных тoчках местнoсти мoжет значительнo oтличаться oт давления на метеoстанции, в зависимoсти oт услoвий рельефа (при пoдъёме на 10 м давление пoнижается примернo на 1 мм рт.ст.).